| time (UTC) | temp F | wind direction | speed MPH | gust MPH | rain 1hr in | rain 24hr in | rain mn in | humidity % | barometer mb |
| 20260504050439 | 62 | 109 | 1.0 | 2.0 | 0.00 | 0.00 | 0.00 | 80 | 1022.5 |
| 20260504045936 | 61 | 111 | 1.0 | 2.0 | 0.00 | 0.00 | 0.00 | 80 | 1022.6 |
| 20260504045432 | 62 | 141 | 1.0 | 2.0 | 0.00 | 0.00 | 0.00 | 80 | 1022.9 |
| 20260504044928 | 62 | 240 | 0.0 | 1.0 | 0.00 | 0.00 | 0.00 | 80 | 1022.8 |
| 20260504044426 | 62 | 142 | 0.0 | 1.0 | 0.00 | 0.00 | 0.00 | 79 | 1022.7 |
| 20260504043923 | 63 | 119 | 0.0 | 1.0 | 0.00 | 0.00 | 0.00 | 78 | 1022.7 |
| 20260504043420 | 62 | 124 | 0.0 | 1.0 | 0.00 | 0.00 | 0.00 | 78 | 1022.8 |
| 20260504042917 | 63 | 129 | 0.0 | 2.0 | 0.00 | 0.00 | 0.00 | 76 | 1023.0 |
| 20260504042414 | 63 | 119 | 0.0 | 1.0 | 0.00 | 0.00 | 0.00 | 75 | 1023.1 |
| 20260504041910 | 63 | 113 | 0.0 | 2.0 | 0.00 | 0.00 | 0.00 | 75 | 1022.7 |
| 20260504041406 | 63 | 129 | 0.0 | 2.0 | 0.00 | 0.00 | 0.00 | 74 | 1022.6 |
| 20260504040902 | 64 | 120 | 0.0 | 1.0 | 0.00 | 0.00 | 0.00 | 73 | 1022.6 |
| 20260504040400 | 64 | 139 | 0.0 | 2.0 | 0.00 | 0.00 | 0.00 | 72 | 1022.7 |
| 20260504035856 | 64 | 139 | 1.0 | 2.0 | 0.00 | 0.00 | 0.00 | 72 | 1022.6 |
| 20260504035354 | 64 | 157 | 1.0 | 2.0 | 0.00 | 0.00 | 0.00 | 72 | 1022.8 |
| 20260504034850 | 65 | 133 | 1.0 | 2.0 | 0.00 | 0.00 | 0.00 | 70 | 1022.7 |
| 20260504034348 | 65 | 127 | 0.0 | 2.0 | 0.00 | 0.00 | 0.00 | 70 | 1023.0 |
| 20260504033844 | 65 | 144 | 0.0 | 2.0 | 0.00 | 0.00 | 0.00 | 70 | 1022.9 |
| 20260504033343 | 66 | 142 | 0.0 | 2.0 | 0.00 | 0.00 | 0.00 | 68 | 1022.8 |
| 20260504032839 | 66 | 129 | 0.0 | 2.0 | 0.00 | 0.00 | 0.00 | 68 | 1022.8 |
| 20260504032336 | 66 | 135 | 0.0 | 2.0 | 0.00 | 0.00 | 0.00 | 66 | 1022.7 |
| 20260504031833 | 66 | 165 | 1.0 | 2.0 | 0.00 | 0.00 | 0.00 | 67 | 1022.8 |
| 20260504031330 | 67 | 129 | 0.0 | 2.0 | 0.00 | 0.00 | 0.00 | 65 | 1022.7 |
| 20260504030826 | 67 | 135 | 0.0 | 4.0 | 0.00 | 0.00 | 0.00 | 65 | 1022.7 |
| 20260504030324 | 67 | 164 | 2.0 | 4.0 | 0.00 | 0.00 | 0.00 | 65 | 1022.7 |
| 20260504025820 | 67 | 134 | 1.0 | 3.0 | 0.00 | 0.00 | 0.00 | 65 | 1022.8 |
| 20260504025317 | 67 | 128 | 2.0 | 4.0 | 0.00 | 0.00 | 0.00 | 64 | 1022.6 |
| 20260504024813 | 67 | 130 | 2.0 | 4.0 | 0.00 | 0.00 | 0.00 | 64 | 1022.8 |
| 20260504024310 | 68 | 153 | 0.0 | 4.0 | 0.00 | 0.00 | 0.00 | 63 | 1022.9 |
| 20260504023807 | 68 | 141 | 0.0 | 5.0 | 0.00 | 0.00 | 0.00 | 63 | 1022.9 |
| 20260504023303 | 68 | 124 | 0.0 | 4.0 | 0.00 | 0.00 | 0.00 | 63 | 1022.8 |
| 20260504022759 | 68 | 177 | 0.0 | 3.0 | 0.00 | 0.00 | 0.00 | 62 | 1022.8 |
| 20260504022256 | 69 | 153 | 1.0 | 5.0 | 0.00 | 0.00 | 0.00 | 62 | 1022.7 |
| 20260504021752 | 68 | 118 | 0.0 | 4.0 | 0.00 | 0.00 | 0.00 | 63 | 1022.6 |
| 20260504021250 | 68 | 116 | 2.0 | 3.0 | 0.00 | 0.00 | 0.00 | 62 | 1022.8 |
| 20260504020747 | 69 | 172 | 0.0 | 5.0 | 0.00 | 0.00 | 0.00 | 61 | 1022.7 |
| 20260504020243 | 69 | 209 | 1.0 | 4.0 | 0.00 | 0.00 | 0.00 | 61 | 1022.6 |
| 20260504015739 | 69 | 185 | 0.0 | 2.0 | 0.00 | 0.00 | 0.00 | 60 | 1022.7 |
| 20260504015236 | 69 | 226 | 1.0 | 3.0 | 0.00 | 0.00 | 0.00 | 60 | 1022.8 |
| 20260504014732 | 70 | 273 | 0.0 | 3.0 | 0.00 | 0.00 | 0.00 | 59 | 1022.5 |
| 20260504014228 | 70 | 159 | 1.0 | 3.0 | 0.00 | 0.00 | 0.00 | 59 | 1022.8 |
| 20260504013726 | 70 | 180 | 0.0 | 6.0 | 0.00 | 0.00 | 0.00 | 58 | 1022.7 |
| 20260504013224 | 70 | 186 | 0.0 | 3.0 | 0.00 | 0.00 | 0.00 | 57 | 1022.6 |
| 20260504012720 | 70 | 162 | 2.0 | 5.0 | 0.00 | 0.00 | 0.00 | 58 | 1022.7 |
| 20260504012218 | 71 | 180 | 0.0 | 3.0 | 0.00 | 0.00 | 0.00 | 58 | 1022.4 |
| 20260504011715 | 71 | 136 | 3.0 | 7.0 | 0.00 | 0.00 | 0.00 | 56 | 1022.5 |
| 20260504011212 | 71 | 245 | 3.0 | 5.0 | 0.00 | 0.00 | 0.00 | 55 | 1022.4 |
| 20260504010708 | 71 | 149 | 3.0 | 6.0 | 0.00 | 0.00 | 0.00 | 55 | 1022.4 |
| 20260504010203 | 71 | 170 | 2.0 | 5.0 | 0.00 | 0.00 | 0.00 | 55 | 1022.5 |
| 20260504005700 | 71 | 125 | 2.0 | 4.0 | 0.00 | 0.00 | 0.00 | 54 | 1022.5 |
| 20260504005157 | 72 | 219 | 1.0 | 3.0 | 0.00 | 0.00 | 0.00 | 53 | 1022.3 |
| 20260504004655 | 72 | 197 | 1.0 | 8.0 | 0.00 | 0.00 | 0.00 | 53 | 1022.2 |
| 20260504004152 | 72 | 189 | 2.0 | 10.0 | 0.00 | 0.00 | 0.00 | 53 | 1022.3 |
| 20260504003648 | 72 | 132 | 5.0 | 7.0 | 0.00 | 0.00 | 0.00 | 52 | 1022.5 |
| 20260504003145 | 73 | 192 | 1.0 | 4.0 | 0.00 | 0.00 | 0.00 | 51 | 1022.4 |
| 20260504002642 | 73 | 154 | 2.0 | 5.0 | 0.00 | 0.00 | 0.00 | 51 | 1022.3 |
| 20260504002139 | 74 | 247 | 1.0 | 4.0 | 0.00 | 0.00 | 0.00 | 49 | 1022.4 |
| 20260504001637 | 74 | 242 | 3.0 | 5.0 | 0.00 | 0.00 | 0.00 | 48 | 1022.4 |
| 20260504001133 | 75 | 144 | 1.0 | 4.0 | 0.00 | 0.00 | 0.00 | 48 | 1022.4 |
| 20260504000630 | 75 | 198 | 2.0 | 7.0 | 0.00 | 0.00 | 0.00 | 47 | 1022.5 |
| 20260504000127 | 75 | 162 | 3.0 | 7.0 | 0.00 | 0.00 | 0.00 | 47 | 1022.5 |
| 20260503235626 | 76 | 272 | 1.0 | 6.0 | 0.00 | 0.00 | 0.00 | 46 | 1022.5 |
| 20260503235122 | 76 | 159 | 2.0 | 7.0 | 0.00 | 0.00 | 0.00 | 47 | 1022.5 |
| 20260503234620 | 75 | 151 | 2.0 | 9.0 | 0.00 | 0.00 | 0.00 | 46 | 1022.6 |
| 20260503234118 | 76 | 177 | 2.0 | 7.0 | 0.00 | 0.00 | 0.00 | 47 | 1022.6 |
| 20260503233615 | 76 | 186 | 2.0 | 12.0 | 0.00 | 0.00 | 0.00 | 45 | 1022.8 |
| 20260503233110 | 77 | 194 | 2.0 | 10.0 | 0.00 | 0.00 | 0.00 | 45 | 1023.0 |
| 20260503232607 | 77 | 213 | 2.0 | 5.0 | 0.00 | 0.00 | 0.00 | 46 | 1022.6 |
| 20260503232105 | 77 | 128 | 4.0 | 11.0 | 0.00 | 0.00 | 0.00 | 44 | 1022.7 |
| 20260503231603 | 77 | 136 | 3.0 | 8.0 | 0.00 | 0.00 | 0.00 | 45 | 1022.7 |
| 20260503231059 | 77 | 209 | 2.0 | 10.0 | 0.00 | 0.00 | 0.00 | 44 | 1022.9 |
| 20260503230555 | 78 | 152 | 4.0 | 8.0 | 0.00 | 0.00 | 0.00 | 44 | 1023.1 |
| 20260503230053 | 78 | 183 | 4.0 | 9.0 | 0.00 | 0.00 | 0.00 | 45 | 1022.7 |
| 20260503225550 | 78 | 185 | 3.0 | 14.0 | 0.00 | 0.00 | 0.00 | 45 | 1022.9 |
| 20260503225045 | 78 | 146 | 6.0 | 10.0 | 0.00 | 0.00 | 0.00 | 42 | 1022.8 |
| 20260503224543 | 78 | 142 | 3.0 | 7.0 | 0.00 | 0.00 | 0.00 | 43 | 1022.8 |
| 20260503224040 | 77 | 216 | 2.0 | 4.0 | 0.00 | 0.00 | 0.00 | 44 | 1022.8 |
| 20260503223538 | 78 | 114 | 4.0 | 6.0 | 0.00 | 0.00 | 0.00 | 42 | 1023.0 |
| 20260503223033 | 79 | 176 | 4.0 | 13.0 | 0.00 | 0.00 | 0.00 | 42 | 1023.3 |
| 20260503222532 | 81 | 190 | 1.0 | 5.0 | 0.00 | 0.00 | 0.00 | 40 | 1023.2 |
| 20260503222030 | 80 | 182 | 2.0 | 5.0 | 0.00 | 0.00 | 0.00 | 43 | 1022.9 |
| 20260503221528 | 79 | 184 | 2.0 | 11.0 | 0.00 | 0.00 | 0.00 | 42 | 1023.2 |
| 20260503221025 | 80 | 76 | 0.0 | 5.0 | 0.00 | 0.00 | 0.00 | 39 | 1022.9 |
| 20260503220521 | 81 | 158 | 2.0 | 5.0 | 0.00 | 0.00 | 0.00 | 41 | 1023.0 |
| 20260503220018 | 81 | 162 | 2.0 | 4.0 | 0.00 | 0.00 | 0.00 | 41 | 1023.0 |
| 20260503215515 | 79 | 242 | 2.0 | 5.0 | 0.00 | 0.00 | 0.00 | 40 | 1023.2 |
| 20260503215012 | 81 | 148 | 2.0 | 5.0 | 0.00 | 0.00 | 0.00 | 39 | 1023.5 |
| 20260503214510 | 82 | 119 | 1.0 | 4.0 | 0.00 | 0.00 | 0.00 | 39 | 1023.5 |
| 20260503214006 | 80 | 123 | 2.0 | 7.0 | 0.00 | 0.00 | 0.00 | 40 | 1023.6 |
| 20260503213505 | 80 | 200 | 2.0 | 7.0 | 0.00 | 0.00 | 0.00 | 38 | 1023.7 |
| 20260503213001 | 81 | 85 | 8.0 | 10.0 | 0.00 | 0.00 | 0.00 | 39 | 1023.7 |
| 20260503212459 | 80 | 161 | 6.0 | 6.0 | 0.00 | 0.00 | 0.00 | 39 | 1023.7 |
| 20260503211956 | 80 | 211 | 3.0 | 5.0 | 0.00 | 0.00 | 0.00 | 37 | 1023.9 |
| 20260503211453 | 80 | 113 | 3.0 | 7.0 | 0.00 | 0.00 | 0.00 | 39 | 1023.9 |
| 20260503210948 | 81 | 176 | 2.0 | 5.0 | 0.00 | 0.00 | 0.00 | 40 | 1023.9 |
| 20260503210445 | 81 | 251 | 1.0 | 5.0 | 0.00 | 0.00 | 0.00 | 37 | 1023.8 |
| 20260503205940 | 81 | 138 | 2.0 | 8.0 | 0.00 | 0.00 | 0.00 | 40 | 1024.1 |
| 20260503205437 | 81 | 166 | 2.0 | 8.0 | 0.00 | 0.00 | 0.00 | 39 | 1024.1 |
| 20260503204933 | 80 | 151 | 4.0 | 8.0 | 0.00 | 0.00 | 0.00 | 39 | 1024.2 |
| 20260503204431 | 81 | 190 | 2.0 | 5.0 | 0.00 | 0.00 | 0.00 | 39 | 1024.2 |
| 20260503203927 | 80 | 156 | 3.0 | 5.0 | 0.00 | 0.00 | 0.00 | 40 | 1024.1 |
| 20260503203425 | 81 | 155 | 5.0 | 8.0 | 0.00 | 0.00 | 0.00 | 38 | 1024.4 |
| 20260503202921 | 80 | 243 | 2.0 | 9.0 | 0.00 | 0.00 | 0.00 | 39 | 1024.5 |
| 20260503202420 | 79 | 357 | 0.0 | 10.0 | 0.00 | 0.00 | 0.00 | 40 | 1024.5 |
| 20260503201918 | 82 | 205 | 3.0 | 5.0 | 0.00 | 0.00 | 0.00 | 41 | 1024.7 |
| 20260503201415 | 81 | 15 | 0.0 | 3.0 | 0.00 | 0.00 | 0.00 | 42 | 1024.9 |
| 20260503200912 | 80 | 200 | 5.0 | 10.0 | 0.00 | 0.00 | 0.00 | 39 | 1025.0 |
| 20260503200408 | 81 | 105 | 1.0 | 12.0 | 0.00 | 0.00 | 0.00 | 39 | 1025.0 |
| 20260503195905 | 81 | 200 | 1.0 | 10.0 | 0.00 | 0.00 | 0.00 | 38 | 1024.8 |
| 20260503195402 | 81 | 175 | 2.0 | 5.0 | 0.00 | 0.00 | 0.00 | 39 | 1025.0 |
| 20260503194859 | 80 | 89 | 0.0 | 5.0 | 0.00 | 0.00 | 0.00 | 43 | 1025.1 |
| 20260503194355 | 80 | 169 | 0.0 | 9.0 | 0.00 | 0.00 | 0.00 | 38 | 1025.2 |
| 20260503193851 | 80 | 174 | 2.0 | 8.0 | 0.00 | 0.00 | 0.00 | 40 | 1025.3 |
| 20260503193347 | 81 | 211 | 0.0 | 6.0 | 0.00 | 0.00 | 0.00 | 39 | 1025.2 |
| 20260503192843 | 82 | 315 | 0.0 | 4.0 | 0.00 | 0.00 | 0.00 | 42 | 1025.4 |
| 20260503192339 | 81 | 145 | 2.0 | 8.0 | 0.00 | 0.00 | 0.00 | 38 | 1025.5 |
| 20260503191835 | 81 | 170 | 3.0 | 6.0 | 0.00 | 0.00 | 0.00 | 37 | 1025.5 |
| 20260503191333 | 82 | 219 | 0.0 | 6.0 | 0.00 | 0.00 | 0.00 | 37 | 1025.7 |
| 20260503190829 | 80 | 170 | 4.0 | 7.0 | 0.00 | 0.00 | 0.00 | 36 | 1025.8 |
| 20260503190326 | 81 | 139 | 6.0 | 10.0 | 0.00 | 0.00 | 0.00 | 35 | 1025.9 |
| 20260503185823 | 83 | 123 | 0.0 | 6.0 | 0.00 | 0.00 | 0.00 | 38 | 1026.0 |
| 20260503185319 | 80 | 155 | 2.0 | 8.0 | 0.00 | 0.00 | 0.00 | 37 | 1025.8 |
| 20260503184814 | 81 | 167 | 2.0 | 5.0 | 0.00 | 0.00 | 0.00 | 36 | 1026.1 |
| 20260503184310 | 81 | 209 | 2.0 | 4.0 | 0.00 | 0.00 | 0.00 | 37 | 1026.2 |
| 20260503183806 | 80 | 160 | 2.0 | 5.0 | 0.00 | 0.00 | 0.00 | 37 | 1026.2 |
| 20260503183304 | 79 | 139 | 3.0 | 10.0 | 0.00 | 0.00 | 0.00 | 36 | 1026.2 |
| 20260503182801 | 79 | 161 | 2.0 | 5.0 | 0.00 | 0.00 | 0.00 | 38 | 1026.0 |
| 20260503182300 | 81 | 252 | 1.0 | 3.0 | 0.00 | 0.00 | 0.00 | 35 | 1026.4 |
| 20260503181756 | 80 | 180 | 1.0 | 4.0 | 0.00 | 0.00 | 0.00 | 37 | 1026.5 |
| 20260503181253 | 80 | 234 | 3.0 | 9.0 | 0.00 | 0.00 | 0.00 | 36 | 1026.5 |
| 20260503180750 | 79 | 136 | 4.0 | 6.0 | 0.00 | 0.00 | 0.00 | 35 | 1026.5 |
| 20260503180248 | 81 | 215 | 2.0 | 8.0 | 0.00 | 0.00 | 0.00 | 34 | 1026.5 |
| 20260503175744 | 80 | 144 | 2.0 | 7.0 | 0.00 | 0.00 | 0.00 | 37 | 1026.6 |
| 20260503175242 | 79 | 139 | 3.0 | 10.0 | 0.00 | 0.00 | 0.00 | 37 | 1026.6 |
| 20260503174738 | 79 | 135 | 2.0 | 10.0 | 0.00 | 0.00 | 0.00 | 38 | 1026.9 |
| 20260503174236 | 79 | 154 | 0.0 | 4.0 | 0.00 | 0.00 | 0.00 | 41 | 1027.1 |
| 20260503173736 | 78 | 237 | 4.0 | 5.0 | 0.00 | 0.00 | 0.00 | 35 | 1027.0 |
| 20260503173232 | 81 | 112 | 6.0 | 8.0 | 0.00 | 0.00 | 0.00 | 36 | 1027.0 |
| 20260503172730 | 79 | 151 | 3.0 | 8.0 | 0.00 | 0.00 | 0.00 | 37 | 1027.1 |
| 20260503172227 | 80 | 135 | 4.0 | 10.0 | 0.00 | 0.00 | 0.00 | 35 | 1027.1 |
| 20260503171723 | 78 | 154 | 1.0 | 11.0 | 0.00 | 0.00 | 0.00 | 39 | 1027.1 |
| 20260503171220 | 78 | 193 | 1.0 | 10.0 | 0.00 | 0.00 | 0.00 | 36 | 1027.2 |
| 20260503170717 | 79 | 124 | 3.0 | 6.0 | 0.00 | 0.00 | 0.00 | 39 | 1027.3 |
| 20260503170214 | 78 | 179 | 2.0 | 6.0 | 0.00 | 0.00 | 0.00 | 39 | 1027.3 |
| 20260503160136 | 78 | 167 | 5.0 | 12.0 | 0.00 | 0.00 | 0.00 | 38 | 1027.2 |
| 20260503150606 | 77 | 88 | 0.0 | 4.0 | 0.00 | 0.00 | 0.00 | 43 | 1027.1 |
| 20260503130955 | 66 | 89 | 0.0 | 0.0 | 0.00 | 0.00 | 0.00 | 85 | 1026.3 |
| 20260503130453 | 65 | 57 | 0.0 | 1.0 | 0.00 | 0.00 | 0.00 | 88 | 1026.2 |
| 20260503110349 | 54 | 89 | 0.0 | 2.0 | 0.00 | 0.00 | 0.00 | 99 | 1025.5 |
| 20260503090241 | 55 | 97 | 0.0 | 1.0 | 0.00 | 0.00 | 0.00 | 99 | 1024.9 |
| 20260503081209 | 56 | 113 | 0.0 | 0.0 | 0.00 | 0.00 | 0.00 | 98 | 1025.1 |
| 20260503080704 | 56 | 86 | 1.0 | 2.0 | 0.00 | 0.00 | 0.00 | 97 | 1024.8 |
| 20260503080201 | 56 | 113 | 0.0 | 1.0 | 0.00 | 0.00 | 0.00 | 97 | 1025.0 |
| 20260503072638 | 56 | 119 | 0.0 | 1.0 | 0.00 | 0.00 | 0.00 | 95 | 1024.9 |
| 20260503072135 | 57 | 102 | 0.0 | 1.0 | 0.00 | 0.00 | 0.00 | 95 | 1024.9 |
| 20260503071631 | 57 | 121 | 0.0 | 2.0 | 0.00 | 0.00 | 0.00 | 94 | 1025.0 |
| 20260503071128 | 57 | 89 | 0.0 | 1.0 | 0.00 | 0.00 | 0.00 | 94 | 1025.0 |
| 20260503070625 | 57 | 147 | 0.0 | 1.0 | 0.00 | 0.00 | 0.00 | 94 | 1025.0 |
| 20260503070123 | 57 | 103 | 0.0 | 1.0 | 0.00 | 0.00 | 0.00 | 94 | 1024.7 |